Location: Cidade Industrial
(19.9500°S, 44.0167°W)
Time: 10:22:00
(UTC+00:00)

Daily predictions for brighter satellites

Satellite Brightness Start Highest point End
(mag) Time Altitude Azimuth Time Altitude Azimuth Time Altitude Azimuth
H-2A R/B 3.9 21:42:25 10° ESE 21:44:53 16° E 21:47:18 10° NE
Sich 1 4.1 21:40:52 10° NNW 21:45:07 52° W 21:49:28 10° S
Meteor 2-21 Rocket 4.5 21:40:00 10° N 21:46:03 85° E 21:52:10 10° S
H-2A R/B 2.9 21:42:56 10° N 21:47:16 55° WNW 21:51:35 10° SSW
CZ-4B R/B 1.1 21:44:35 10° NNE 21:47:33 66° ESE 21:50:34 10° S
Cosmos 44 3.1 21:44:59 10° N 21:49:04 48° ENE 21:53:13 10° SE
YAOGAN 1 3.5 21:49:22 10° SE 21:53:07 28° E 21:56:50 10° NNE
Cosmos 1515 3.9 21:50:12 10° S 21:54:00 74° W 21:57:45 10° N
Cosmos 1898 Rocket 3.5 21:49:52 10° NNW 21:55:01 87° ENE 22:00:15 10° SSE
FALCON 9 R/B 4.4 20:45:06 10° NW 21:55:13 73° NNE 22:03:29 10° ESE
ASTRO E2 3.0 21:53:58 10° WNW 21:57:54 70° SSW 22:01:52 10° ESE
Meteor 1-19 Rocket 4.4 21:52:00 10° S 21:57:55 64° E 22:03:52 10° NNE
USA 215 3.4 21:52:42 10° NE 21:59:11 71° SE 22:05:45 10° SSW
Cosmos 1707 Rocket 4.1 21:55:11 10° SSE 21:59:17 39° E 22:03:20 10° NNE
Cosmos 1666 2.9 21:57:33 10° N 22:01:15 75° W 22:05:03 10° S
Okean 1 3.3 21:58:17 10° S 22:02:21 66° E 22:06:22 10° NNE
Okean O Rocket 1.7 21:58:58 10° S 22:03:25 87° W 22:07:50 10° NNW
Okean-O 4.2 22:00:55 10° ESE 22:03:42 16° E 22:05:57 12° NE
Hubble Space Telescope 2.1 22:04:17 10° W 22:07:55 29° NNW 22:11:16 11° NNE
Delta 7925 Rocket 3.4 22:06:24 10° WSW 22:11:10 86° NNW 22:15:43 15° ENE
Cosmos 1862 Rocket 4.5 22:07:59 10° SSE 22:11:57 30° E 22:14:59 15° NE
Fermi 4.0 22:10:49 10° WSW 22:14:58 66° SSE 22:18:10 16° E
ASTEX 1 3.6 22:17:30 10° SSE 22:22:15 47° E 22:26:58 10° NNE
CZ-4 R/B 1.4 22:21:09 10° SSE 22:25:23 77° ENE 22:29:35 10° N
HJ-1C 3.2 22:22:04 10° SSE 22:25:24 79° E 22:28:40 10° N
ARGOS 4.2 22:23:04 10° S 22:28:21 50° WSW 22:33:33 10° NNW
Cosmos 1697 Rocket 2.9 22:22:49 10° NNW 22:28:25 75° WSW 22:34:06 10° SSE
COSMOS 2487 2.6 22:26:26 10° SSW 22:29:44 64° WNW 22:32:19 15° N
Skynet4D Del rocket 4.5 22:22:38 10° NW 22:30:28 54° NNE 22:36:48 13° E
Cosmos 1980 Rocket 2.3 22:27:10 10° N 22:32:32 50° ENE 22:37:57 10° SSE
Cosmos 2369 3.6 22:26:55 10° N 22:32:34 70° ENE 22:38:13 10° SSE
SEDSat Delta rocket 3.8 22:31:16 10° WNW 22:36:02 63° SSW 22:41:34 10° ESE
Cosmos 158 Rocket 4.3 22:31:25 10° SSW 22:36:24 61° WNW 22:41:10 10° N
Cosmos 1743 3.6 22:37:17 29° E 22:37:30 30° E 22:40:56 10° SSE
BREEZE-M DEB (TANK) 2.8 22:36:32 10° SSW 22:38:32 32° SE 22:38:42 32° ESE
Cosmos 2266 Rocket 4.2 22:33:38 10° N 22:40:01 77° W 22:46:23 10° S
Centaur D AC-29 3.4 22:39:46 10° WSW 22:45:18 71° SSE 23:31:49 10° ENE
Cosmos 1536 2.7 22:46:21 24° N 22:48:40 75° E 22:52:40 10° S
Intelsat 5-3 Rocket 3.9 22:45:43 10° W 22:49:47 21° NW 22:50:49 18° NNW
Cosmos 1933 Rocket 3.8 22:47:10 10° NNW 22:51:27 67° W 22:55:51 10° S
Cosmos 2278 3.7 22:51:25 10° N 22:56:57 60° ENE 23:02:32 10° SSE
SAR-Lupe-4 4.2 22:58:46 41° SE 22:58:46 41° SE 23:01:45 10° S
Cosmos 1378 3.1 22:57:02 10° S 23:00:46 80° W 23:01:25 57° NNW
IRS-1C Rocket 4.1 22:56:31 10° S 23:01:50 83° WSW 23:07:06 10° NNW
CSL-04 Debris 4.0 22:57:29 10° SSE 23:02:57 75° ENE 23:06:38 21° N
Cosmos 1869 Rocket 3.4 23:05:30 63° NE 23:05:52 67° E 23:10:15 10° SSE
USA 229 DEB 4.0 22:58:04 10° NNW 23:06:01 89° WSW 23:13:48 10° SSE
USA 229 4.0 22:58:10 10° NNW 23:06:07 90° SE 23:13:52 10° SSE
Cosmos 1356 Rocket 4.3 23:03:22 11° NNW 23:07:23 51° W 23:11:37 10° S
Cosmos 1244 Rocket 4.5 23:09:05 37° NNE 23:11:36 63° E 23:17:54 10° SSE
Cosmos 2297 Rocket 2.1 23:10:06 10° SSW 23:15:47 79° ESE 23:17:00 56° NE
CZ-3B R/B 3.9 23:07:01 10° W 23:15:51 41° NNW 23:18:35 32° N
IRS-P2 Rocket 4.5 23:10:57 10° SSE 23:16:14 89° ENE 23:18:38 34° NNW
SL-8 R/B 3.7 23:11:36 10° SW 23:16:26 63° SE 23:16:42 62° ESE
Yuri Rocket 4.4 23:10:25 10° WSW 23:16:35 69° SSE 23:19:58 37° E
SAR-Lupe-1 4.5 23:17:26 62° WSW 23:17:26 62° WSW 23:20:38 10° SSW
Okean 1-7 3.3 23:15:11 10° S 23:18:47 54° SE 23:18:47 54° SE
GPS 2-17 Rocket1 3.0 23:16:47 10° W 23:20:50 69° WNW 23:20:50 69° WNW
Cosmos 2298 Rocket 3.9 23:21:42 68° NNE 23:22:13 74° ENE 23:27:34 10° SSE
Timation 1 Rocket 4.3 23:19:14 10° SSW 23:25:17 87° WNW 23:26:34 58° NNE
Meteor 2-9 Rocket 4.5 23:27:19 54° ESE 23:27:19 54° ESE 23:32:38 10° SSE
Milstar 3 Cent rocket 2.8 23:21:54 10° WNW 23:27:27 81° SSW 23:38:10 10° ESE
OBJECT-B 2.7 23:25:55 10° SSW 23:28:12 29° SW 23:28:12 29° SW
Cosmos 1680 Rocket 4.1 23:31:41 10° SSW 23:36:48 52° WNW 23:37:40 47° NW
Meteor 2-17 Rocket 4.4 23:38:39 68° ESE 23:38:39 68° ESE 23:44:33 10° S
Delta 168 4.0 23:34:48 10° WSW 23:39:48 42° S 23:39:48 42° S
SJ-6B 4.4 23:39:30 10° S 23:41:48 31° SSW 23:41:48 31° SSW
Centaur Rocket 4.3 23:33:33 10° WNW 23:43:57 52° NNW 23:43:57 52° NNW
SL-08 R/B 4.3 23:45:11 80° N 23:45:34 90° W 23:51:51 10° S
Resurs 01 Rocket 4.3 23:42:40 10° SSE 23:42:42 10° SSE 23:42:42 10° SSE
Cosmos 2227 Rocket 2.3 23:45:27 10° SSW 23:50:55 69° W 23:50:55 69° W
CZ-4C R/B 3.2 23:52:39 60° E 23:52:39 60° E 23:59:54 10° SE
